Location: Newark
(7.0858°N, 171.3717°E)
Time: 05:31:21
(UTC+00:00)

Courier 1B Rocket - Pass Details

Date: 02 December 2020
Orbit: 920 x 1202 km, 28.2° (Epoch: 20 January)

Event Time Altitude Azimuth Distance (km) Brightness Sun altitude
Rises 16:53:17 0° 288° (WNW) 4,016 - -23.7°
Reaches altitude 10° 16:57:09 10° 306° (NW) 3,088 - -22.8°
Exits shadow 17:01:37 18° 342° (NNW) 2,542 6.8 -21.8°
Maximum altitude 17:02:11 18° 347° (NNW) 2,536 6.8 -21.6°
Drops below altitude 10° 17:07:18 10° 29° (NNE) 3,125 7.7 -20.4°
Sets 17:11:15 0° 46° (NE) 4,081 8.6 -19.5°
